Simultaneous Nadir Overpasses (SNOs) Predictions

Prediction of SNOs between AQUA and METOP-C Satellite Orbit:

Table of predicted SNOs for the next 14.0 days since TLE Epoch: 6/29/2019
Index Date (AQUA) Time (AQUA) Lat,Lon (AQUA) SZA (AQUA ) Date (METOP-C) Time (METOP-C) Lat,Lon (METOP-C) SZA (METOP-C ) Distance(km) Time Diff (sec)
1 06/29/2019 09:13:48 -73.75,-144.03 129.45 06/29/2019 09:13:21 -73.78,-144.08 129.42 3.15 27
2 06/29/2019 10:03:17 73.86, 23.38 50.67 06/29/2019 10:03:59 73.86, 23.45 50.66 2.11 42
3 07/02/2019 03:58:22 73.04, 116.25 49.97 07/02/2019 03:57:17 72.98, 113.21 50.05 98.99 65
4 07/02/2019 04:48:02 -73.77, -77.62 129.25 07/02/2019 04:47:43 -73.78, -77.67 129.24 1.85 19
5 07/02/2019 05:37:31 73.88, 89.77 50.87 07/02/2019 05:38:21 73.86, 89.86 50.84 3.56 50
6 07/04/2019 23:32:43 73.39,-178.01 50.57 07/04/2019 23:31:34 73.29,-179.72 50.56 55.57 69
7 07/05/2019 00:22:17 -73.79, -11.23 129.00 07/05/2019 00:22:06 -73.78, -11.26 129.00 1.19 11
8 07/05/2019 01:11:45 73.85, 156.27 51.08 07/05/2019 01:12:44 73.87, 156.28 51.08 1.45 59
9 07/07/2019 19:07:03 73.68,-112.19 51.17 07/07/2019 19:05:50 73.64,-112.50 51.16 10.65 73
10 07/07/2019 19:56:32 -73.81, 55.16 128.69 07/07/2019 19:56:29 -73.78, 55.15 128.71 3.36 3
11 07/07/2019 20:46:00 73.88,-137.36 51.40 07/07/2019 20:47:07 73.87,-137.30 51.37 2.23 67
12 07/10/2019 14:41:18 73.76, -45.94 51.60 07/10/2019 14:40:10 73.75, -45.85 51.59 3.16 68
13 07/10/2019 15:30:45 -73.79, 121.64 128.37 07/10/2019 15:30:51 -73.78, 121.56 128.38 2.70 6




NCC Satellite Simultaneous Nadir Overpasses (SNOs) Prediction Service
